SCP
0 0 0 0 0 0 0 0 0 0 0 0 0 0 0 0 0 0 0 0 0 0 0 0 0 0 0 0 0 0 0 0 0 0 0 0 0 0
0 0 0 0 0 0 0 0 0 0 0 0 0 0 0 0 0 0 0 0 0 0 0 0 0 0 0 0 0 0 0 0 0 0 0 0 0 0
0 0 0 0 0 0 0 0 0 0 0 0 0 0 0 0 0 0 0 0 0 0 0 0 0 0 0 0 0 0 0 0 0 0 0 0 0 0
0 0 0 0 0 0 0 0 0 0 0 0 0 0 0 0 0 0 0 0 0 0 0 0 0 0 0 0 0 0 0 0 0 0 0 0 0 0
0 0 0 0 0 0 0 0 0 0 0 0 0 0 0 0 0 0 0 0 0 0 0 0 0 0 0 0 0 0 0 0 0 0 0 0 0 0
0 0 0 0 0 0 0 0 0 0 0 0 0 0 0 0 0 0 0 0 0 0 0 0 0 0 0 0 0 0 0 0 0 0 0 0 0 0
0 0 0 0 0 0 0 0 0 0 0 0 0 0 0 0 0 0 0 0 0 0 0 0 0 0 0 0 0 0 0 0 0 0 0 0 0 0
0 0 0 0 0 0 0 0 0 0 0 0 0 0 0 0 0 0 0 0 0 0 0 0 0 0 0 0 0 0 0 0 0 0 0 0 0 0
0 0 0 0 0 0 0 0 0 0 0 0 0 0 0 0 0 0 0 0 0 0 0 0 0 0 0 0 0 0 0 0 0 0 0 0 0 0
0 0 0 0 0 0 0 0 0 0 0 0 0 0 0 0 0 0 0 0 0 0 0 1 1 0 0 0 0 0 0 0 0 0 0 0 0 0
0 0 0 0 0 0 0 0 0 0 0 0 0 0 0 0 0 0 0 0 0 0 1 1 1 1 0 0 0 0 0 0 0 0 0 0 0 0
0 0 0 0 0 0 0 0 0 0 0 0 0 0 0 0 0 0 0 0 0 0 0 1 1 1 0 0 0 0 0 0 0 0 0 0 0 0
0 0 0 0 0 0 0 0 0 0 0 0 0 0 0 0 0 0 0 0 0 0 0 1 1 1 0 0 0 0 0 0 0 0 0 0 0 0
0 0 0 0 0 0 0 0 0 0 0 0 0 0 0 0 0 0 0 0 0 0 0 0 1 0 0 0 0 0 0 0 0 0 0 0 0 0
0 0 0 0 0 0 0 0 0 0 0 0 0 0 0 0 0 0 0 0 0 0 0 0 0 0 0 0 0 0 0 0 0 0 0 0 0 0
0 0 0 0 0 0 0 0 0 0 0 0 0 0 0 0 0 0 0 0 0 0 0 0 0 0 0 0 0 0 0 0 0 0 0 0 0 0
0 0 0 0 0 0 0 0 0 0 0 0 0 0 0 0 0 0 0 0 0 0 0 0 0 0 0 0 0 0 0 0 0 0 0 0 0 0
0 0 0 0 0 0 0 0 0 0 0 0 0 0 0 0 0 0 0 0 0 0 0 0 0 0 0 0 0 0 0 0 0 0 0 0 0 0
0 0 0 0 0 0 0 0 0 0 0 0 0 0 0 0 0 0 0 0 0 0 0 0 0 0 0 0 0 0 0 0 0 0 0 0 0 0
0 0 0 0 0 0 0 0 0 0 0 0 0 0 0 0 0 0 0 0 0 0 0 0 0 0 0 0 0 0 0 0 0 0 0 0 0 0
0 0 0 0 0 0 0 0 0 0 0 0 0 0 0 0 0 0 0 0 0 0 0 0 0 0 0 0 0 0 0 0 0 0 0 0 0 0
0 0 0 0 0 0 0 0 0 0 0 0 0 0 0 0 0 0 0 0 0 0 0 0 0 0 0 0 0 0 0 0 0 0 0 0 0 0
0 0 0 0 0 0 0 0 0 0 0 0 0 0 0 0 0 0 0 0 0 0 0 0 0 0 0 0 0 0 0 0 0 0 0 0 0 0
Wind_Speed
2 2 2 2 2 2 2 2 3 3 2 2 2 2 2 3 4 4 4 9 11 11 12 13 14 14 14 15 15 15 15 16 16 16 16 17 17 17
2 3 3 2 2 2 2 2 2 3 3 1 2 2 3 4 5 4 5 10 10 10 11 12 13 13 13 14 14 14 14 15 15 15 15 16 16 16
2 3 3 2 2 2 2 2 3 3 4 2 2 3 3 3 3 3 4 4 4 9 10 11 12 12 13 13 13 13 14 14 14 14 14 14 15 15
3 3 3 3 3 2 2 3 3 3 4 4 2 2 2 3 2 2 3 4 3 7 9 10 10 11 12 12 12 12 12 12 13 13 13 13 13 13
3 3 3 4 3 3 3 3 2 3 3 4 2 2 1 2 2 2 3 2 3 5 7 8 9 10 11 11 11 11 11 11 11 11 12 12 12 12
4 4 3 4 4 3 3 3 3 3 3 3 2 2 1 1 2 1 1 1 2 2 3 5 7 8 9 9 10 10 10 10 10 10 10 11 11 11
4 4 5 7 7 5 4 3 3 2 2 2 2 2 1 1 1 0 1 1 1 1 1 2 3 3 3 5 7 8 8 9 9 10 10 10 10 10
4 5 6 6 8 9 10 8 6 3 2 2 2 2 1 1 0 1 1 1 1 1 1 1 2 2 2 2 5 7 7 7 7 8 9 9 9 9
3 4 4 5 6 5 6 6 5 5 4 3 3 1 1 1 1 1 1 1 1 0 2 1 1 2 1 3 5 6 5 5 6 7 8 9 9 9
2 3 4 4 4 5 5 4 3 2 2 2 3 2 2 2 2 2 2 2 2 2 3 1 1 0 2 2 3 4 4 4 4 5 6 8 8 8
2 3 3 4 5 7 5 4 4 2 4 6 6 5 6 7 5 3 2 2 1 0 1 1 1 1 1 1 1 2 3 2 2 4 5 6 6 6
2 3 4 5 6 6 4 4 4 3 3 3 3 3 2 3 4 3 2 2 1 0 1 1 0 1 1 1 0 0 0 1 2 3 4 5 5 3
3 2 2 5 6 5 4 3 4 4 3 3 2 2 2 1 1 2 2 2 2 1 0 1 1 1 0 1 1 0 0 1 1 2 3 4 4 3
2 2 3 6 6 5 3 3 4 3 2 2 2 2 2 1 1 1 2 2 2 2 1 2 1 1 1 1 1 2 1 1 0 1 1 3 3 4
3 5 5 7 5 3 3 3 2 1 2 2 2 2 2 2 2 2 2 2 2 2 2 2 1 1 1 1 1 1 1 2 1 1 1 1 1 1
3 4 5 5 3 3 2 1 1 1 2 2 2 2 2 2 2 2 1 1 1 1 2 2 2 1 0 1 1 1 1 1 2 1 1 1 1 1
4 3 2 2 2 2 1 1 1 1 1 2 2 2 2 2 2 1 1 1 1 1 1 1 1 1 1 1 0 1 1 2 2 1 1 2 2 1
6 4 3 3 3 3 3 2 2 2 2 2 2 2 2 2 2 1 1 2 2 1 1 0 1 1 2 2 1 1 1 2 2 2 1 1 3 2
3 3 3 3 3 3 3 3 3 3 2 2 2 2 2 2 2 2 2 1 1 1 1 1 1 1 0 2 3 2 1 2 2 2 2 2 3 3
2 3 3 3 3 3 3 3 3 2 2 2 2 2 2 2 2 2 2 2 2 1 1 0 1 1 3 3 2 2 2 1 1 2 2 2 2 3
3 2 2 2 2 2 2 2 3 3 2 2 2 2 2 2 2 2 2 2 1 1 1 2 2 3 1 0 1 2 2 2 2 1 1 2 3 3
3 3 2 2 2 2 2 2 2 2 2 2 2 2 2 2 2 2 2 2 1 1 1 2 1 0 0 1 2 3 2 2 2 3 2 1 1 2
4 3 3 3 2 2 2 2 3 2 2 2 2 2 2 2 2 2 2 2 1 1 1 0 1 0 1 1 2 2 2 2 2 2 3 4 5 6
Wind_Direction
95 93 83 70 51 54 72 103 124 126 110 100 81 79 94 98 97 91 86 75 70 65 61 59 58 55 54 54 53 51 50 49 48 47 46 46 45 44
97 84 73 82 73 59 59 50 75 119 122 111 107 121 96 104 107 106 97 88 77 74 68 64 62 59 58 57 54 52 50 48 47 46 45 43 42 41
116 107 99 89 89 72 66 63 61 85 110 107 99 106 98 98 99 115 118 102 88 85 79 72 68 63 61 59 56 52 50 47 45 43 42 41 40 39
113 117 118 106 89 75 77 81 82 87 116 119 108 104 110 123 121 118 120 119 110 99 93 85 78 69 63 59 56 53 50 47 44 41 39 38 36 34
107 107 113 113 109 97 91 86 85 87 99 118 121 106 98 105 94 83 95 108 117 116 108 96 90 80 69 61 56 53 50 47 43 41 38 35 32 30
104 94 91 101 108 111 105 101 100 94 94 106 114 109 94 83 95 97 72 77 91 101 108 113 106 93 79 68 61 55 50 46 42 39 35 33 31 28
120 111 96 96 93 95 97 95 99 103 107 106 111 96 81 63 73 139 125 121 75 72 101 121 114 94 84 71 67 60 52 45 41 36 32 28 25 23
141 134 128 118 108 101 94 87 89 105 118 116 119 126 138 142 135 108 128 106 41 360 75 88 121 121 125 101 81 75 62 51 43 36 31 27 23 20
127 129 131 131 132 128 112 99 80 80 98 122 119 140 147 171 144 113 108 110 138 162 82 43 62 93 114 107 104 91 77 63 51 39 30 24 18 17
129 136 136 136 137 133 129 121 110 87 107 110 122 119 94 81 98 135 153 117 87 57 78 81 4 77 119 112 121 110 96 76 52 37 28 19 14 15
98 103 122 127 128 132 134 136 131 120 100 106 109 102 86 75 71 67 62 94 88 12 37 90 335 2 92 143 171 145 119 88 35 20 15 13 9 5
115 102 101 121 127 136 146 143 144 153 139 126 111 100 101 87 78 87 102 112 122 114 334 90 343 43 3 345 90 108 32 330 334 340 352 356 359 359
139 127 114 128 137 139 136 142 153 151 149 141 134 131 123 110 95 87 94 109 115 143 243 104 81 50 80 311 338 3 63 344 332 332 333 344 357 11
140 134 133 132 127 126 130 129 122 113 118 124 123 127 125 120 110 109 103 100 105 120 103 102 118 133 97 4 318 331 327 323 5 327 316 337 349 4
131 132 139 141 133 125 136 138 132 125 130 137 151 163 156 146 120 97 87 88 69 63 61 73 93 101 118 162 273 305 315 312 325 325 330 339 340 359
127 131 132 142 140 138 131 153 174 157 155 163 165 162 137 126 129 131 133 130 94 19 15 43 63 102 140 219 201 286 317 312 323 323 314 308 314 322
144 141 145 144 146 155 169 169 164 164 168 172 160 159 149 144 151 142 133 127 130 145 341 352 17 92 116 154 193 275 293 297 293 298 320 310 302 304
152 161 169 171 177 180 182 184 187 190 189 178 168 168 166 164 163 152 142 152 168 183 192 285 12 25 15 358 318 238 275 279 291 297 301 292 292 294
163 173 177 181 185 186 184 182 189 190 177 166 167 168 165 164 159 164 167 173 189 192 191 161 127 113 171 288 298 279 241 275 296 302 292 276 274 282
178 174 181 181 177 178 178 178 173 164 160 164 165 164 164 166 168 169 172 184 193 176 167 154 179 194 211 237 258 276 268 249 262 274 281 290 289 296
184 179 175 171 171 171 172 168 161 161 162 158 160 162 168 168 172 172 169 180 178 165 187 229 243 233 225 329 302 288 282 275 287 263 275 302 309 314
177 179 173 165 161 160 156 152 150 150 152 156 160 164 163 156 161 164 161 158 171 185 212 241 255 242 139 242 266 278 297 318 324 323 314 274 261 283
176 172 165 161 161 155 153 154 157 158 157 158 160 161 157 160 162 157 158 160 160 170 193 266 314 307 251 248 265 288 313 319 322 323 307 298 294 297